Regional Weather Roundup
Issued by NWS Upton, NY

Current Version | Previous Version | Text Only | Print | Product List | Glossary Off
Versions: 1 2 3 4 5 6 7 8 9 10 11 12 13 14 15 16 17 18 19 20 21 22 23 24 25 26 27 28 29 30 31 32 33 34 35 36 37 38 39 40 41 42 43 44 45 46 47 48 49 50

000
ASUS41 KOKX 261905
RWROKX

REGIONAL WEATHER ROUNDUP
NATIONAL WEATHER SERVICE NEW YORK NY
300 PM EDT SAT JUL 26 2014

NOTE: "FAIR" INDICATES FEW OR NO CLOUDS BELOW 12,000 FEET WITH NO
SIGNIFICANT WEATHER AND/OR OBSTRUCTIONS TO VISIBILITY.

NYZ071-072-176-178-NJZ106-104-262000-
NEW YORK CITY METRO AREA


CITY           SKY/WX    TMP DP  RH WIND       PRES   REMARKS
CENTRAL PARK   CLOUDY    77  63  61 VRB3      29.97F
LAGUARDIA APRT PTSUNNY   81  57  43 SW10      29.94S
KENNEDY INTL   PTSUNNY   79  63  57 S10       29.97S
NEWARK/LIBERTY CLOUDY    80  61  52 S13G18    29.94F
BRNX BOT. GARD   N/A     81  59  47 SW9       29.95F
TETERBORO      PTSUNNY   84  62  47 SW10      29.92F
$$

NYZ177-179-078>081-262000-
LONG ISLAND NEW YORK

CITY           SKY/WX    TMP DP  RH WIND       PRES   REMARKS
FARMINGDALE    CLOUDY    78  66  66 S13       29.95F
ISLIP          CLOUDY    77  64  64 SW10      29.95F
SHIRLEY        CLOUDY    75  62  64 SW10      29.97F
WESTHAMPTON    CLOUDY    74  62  66 SW12G18   29.98F
MONTAUK POINT    N/A     74  65  73 VRB7      29.97F
$$

NYZ052-065-067-262000-
HUDSON VALLEY

CITY           SKY/WX    TMP DP  RH WIND       PRES   REMARKS
WHITE PLAINS   CLOUDY    77  60  55 SW6       29.94F
NEWBURGH       PTSUNNY   73  63  68 W8        29.97S
MONTGOMERY     MOSUNNY   76  63  64 S6        29.94F
POUGHKEEPSIE   PTSUNNY   77  62  59 SW7       29.93F
ALBANY         PTSUNNY   80  57  45 VRB5      29.90F
$$

NJZ001-105-106-008-010-013-015-019>022-104-262000-
NEW JERSEY

CITY           SKY/WX    TMP DP  RH WIND       PRES   REMARKS
NEWARK/LIBERTY CLOUDY    80  61  52 S13G18    29.94F
TETERBORO      PTSUNNY   84  62  47 SW10      29.92F
CALDWELL       PTSUNNY   79  62  56 VRB3      29.94F
MORRISTOWN     PTSUNNY   81  64  57 SW5       29.94F
SOMERVILLE     PTSUNNY   80  65  59 CALM      29.92F
LINDEN         CLOUDY    81  63  52 S6        29.95F
SUSSEX         PTSUNNY   79  61  53 NW6       29.95F
ANDOVER          N/A     77  59  53 VRB3      29.96F
TRENTON        CLOUDY    75  65  70 S12       29.95S
MILLVILLE      PTSUNNY   78  69  73 S9        29.96F
ATLANTIC CITY  CLOUDY    74  65  73 S8        29.97S
WRIGHTSTOWN    PTSUNNY   74  70  86 SW13      29.94F
TOMS RIVER     CLOUDY    75  66  73 SW7       29.97S
BELMAR         PTSUNNY   77  64  65 S6        29.96F
$$

PAZ047>061-062-071-262000-
EASTERN PENNSYLVANIA

CITY           SKY/WX    TMP DP  RH WIND       PRES   REMARKS
PHILADELPHIA   PTSUNNY   78  69  73 VRB3      29.96F
ALLENTOWN      MOSUNNY   82  58  43 W7        29.94F
SCRANTON       PTSUNNY   78  52  40 VRB6      29.96F
$$

CTZ002-004>006-009-010-012-RIZ004-006-007-MAZ004-011-015-262000-
SOUTHERN NEW ENGLAND
 IN CT

CITY           SKY/WX    TMP DP  RH WIND       PRES   REMARKS
BRADLEY INTL   PTSUNNY   79  59  50 SW12      29.92S
HARTFORD       LGT RAIN  76  59  55 SW7       29.93S
DANBURY        CLOUDY    74  60  61 VRB5      29.97F
WTRBRY/OXFORD  PTSUNNY   73  61  64 W6        29.98F
BRIDGEPORT     CLOUDY    77  62  59 SW6       29.95F
MERIDEN        CLOUDY    76  59  55 SW6       29.95S
NEW HAVEN      CLOUDY    78  60  53 SW3       29.95F
CHESTER        FAIR      72  61  68 SW5       29.97S
GROTON         LGT RAIN  74  61  63 SW7       29.94F
WILLIMANTIC    CLOUDY    78  58  49 SW9       29.94S

 IN RI

CITY           SKY/WX    TMP DP  RH WIND       PRES   REMARKS
PROVIDENCE     CLOUDY    78  58  49 SW13G23   29.94F
BLOCK ISLAND   CLOUDY    75  64  69 SW16      29.97F
WESTERLY       CLOUDY    76  61  59 SW10      29.96F

 IN MA

CITY           SKY/WX    TMP DP  RH WIND       PRES   REMARKS
BOSTON         PTSUNNY   83  53  35 SW14G22   29.89F
WORCESTER      PTSUNNY   78  53  41 W14       29.94F
WESTFIELD      PTSUNNY   82  59  45 SW13      29.91F
PROVINCETOWN   MOSUNNY   75  68  78 S10G21    29.92F
NANTUCKET      CLOUDY    70  65  84 S12       29.98F
$$

ANZ330-335-338-340-345-350-353-355-262000-
COASTAL MARINE OBSERVATIONS


STATION/POSITION TIME  SKY/WX   TEMP    WIND        PRES    VSBY  WAVE
                                AIR SEA DIR/SP/G                  HT/PER
                 (UTC)          (F)     (DEG/KT/KT) (MB)    (MI)  (FT/S)
NY HARB ENTRANCE NOT AVBL
4S FIRE IS       NOT AVBL
23SW MTP         1900            72 72              1014.4          2/ 8
HUDSON CANYON    1900            74 75  220/  8/ 10 1015.4          2/ 7
EXECUTION ROCKS  1900            77 72  220/  6/  8   N/A
WESTERN LI SOUND 1900            75     250/  4/  6   N/A           1
CENTRAL LI SOUND 1900            73 72  220/  4/  4   N/A           1/ 4
EASTERN LI SOUND 1800            72 67  230/  8/ 10   N/A
ROBBINS REEF     1900            75     160/ 17/ 19   N/A
$$


>>>>>>>>>>>>>>>>>>>>>>>>>>>> KEY <<<<<<<<<<<<<<<<<<<<<<<<<<<
>                                                          <
>     SKY/WX - SKY CONDITION/PRESENT WEATHER               <
>     TMP    - TEMPERATURE IN FAHRENHEIT                   <
>     DP     - DEWPOINT IN FAHRENHEIT                      <
>     RH     - RELATIVE HUMIDITY IN PERCENT                <
>     WIND   - DIRECTION AND SPEED IN MPH                  <
>     PRES   - MEAN SEA LEVEL PRESSURE IN INCHES OF HG     <
>     WCI    - WIND CHILL INDEX                            <
>     VSB    - VISIBILITY IN MILES                         <
>     HX     - HEAT INDEX                                  <
>     TC     - TEMPERATURE IN CELSIUS                      <
>     VRB    - VARIABLE WIND DIRECTION                     <
>                                                          <
>>>>>>>>>>>>>>>>>>>>>>>>>>>> KEY <<<<<<<<<<<<<<<<<<<<<<<<<<<




USA.gov is the U.S. government's official web portal to all federal, state and local government web resources and services.